{"data":{"norad_id":63914,"epoch":"2026-09-20T23:02:01.186944Z","epoch_age_seconds":107369,"freshness":"FRESH","line1":"1 63914U 25095AA  26263.95973596  .00011682  00000+0  43303-3 0  9999","line2":"2 63914  43.0012 153.2741 0000307 312.5960  47.4866 15.27603593 77644","mean_motion":15.27603593,"eccentricity":3.07e-5,"inclination_deg":43.0012,"raan_deg":153.2741,"arg_perigee_deg":312.596,"mean_anomaly_deg":47.4866,"bstar":0.00043303,"rev_number":7764,"period_min":94.265292815399,"perigee_km":482.76781477501,"apogee_km":483.1890872637,"semimajor_km":6861.1154510194,"source":"CELESTRAK","updated_at":"2026-09-21T09:00:35.147944Z"}}